NUSAT-3 (MILANESAT) (42760 NORAD) Tracking and Keplerian Element Data

This shows tracking and keplerian element data for the satellite.

Feedback or suggestion? Click here.




ElementValue
Catalog42760
NameNUSAT-3 (MILANESAT)
Epoch Orbit6006
Epoch Day198.70216456
Epoch Year2018
RAAN276.3212
Inclination43.0178
Eccentricity0.0009512
Argument of Perigee301.0482
Mean Anonmoly194.4661
Mean Motion15.09184747
Decay Rate7.9E-07
L11 42760U 17034C 18198.70216456 .00000079 00000-0 18455-4 0 9995
L22 42760 43.0178 276.3212 0009512 301.0482 194.4661 15.09184747 60061

Live tracking and technical data element details for NUSAT-3 (MILANESAT) (NORAD 42760). NUSAT-3 (MILANESAT) can be tracked NOW for your location showing map with azimuth and elevation plus other details from your city location.

Track the satellite on the map from your city or location and see movement details for azimuth, elevation, latitude, longitude, range, height, and movement on the map or in text.







IsCatalogInMostPopularTable: catalog: 42760, numindb: 80
Update: records affected: 1



GetName: 42760 NUSAT-3 (MILANESAT)

Hit Count: updated at: Thu, 19 Jul 2018 21:27:39 GMT